weather.gov     
National Weather Service

Terminal Aerodrome Forecast
NWS Homepage
This page is being discontinued on March 12, 2014.
The same data is available at this site. Please update your bookmarks.
Thank you, and we apologize for the inconvenience.
Please send an email to SR-SRH.Webmaster@noaa.gov with any concerns.


Current Version
Previous Version:    01  02  03  04  05  06  07  08  09  10  11  12  13  14  15  16  17  18  19  20  21  22  23  24  25  26  27  28  29  30  
   31  32  33  34  35  36  37  38  39  40  41  42  43  
[Printable]
492
FTUS41 KGYX 230530
TAFCON
TAF
KCON 230530Z 2306/2406 01012G20KT 6SM -RA BR OVC015 WS020/06050KT
     FM230700 02015G23KT 2SM RA BR OVC007 WS020/05055KT
     FM231400 36015G23KT 4SM -RA BR OVC007
     FM231800 36015G23KT P6SM -SHRA OVC012=




492
FTUS41 KGYX 230530
TAFCON
TAF
KCON 230530Z 2306/2406 01012G20KT 6SM -RA BR OVC015 WS020/06050KT
     FM230700 02015G23KT 2SM RA BR OVC007 WS020/05055KT
     FM231400 36015G23KT 4SM -RA BR OVC007
     FM231800 36015G23KT P6SM -SHRA OVC012=


U.S. Dept. of Commerce
NOAA National Weather Service
1325 East West Highway
Silver Spring, MD 20910
E-mail: w-nws.webmaster@noaa.gov
Page last modified: May 16, 2007
NATIONAL WEATHER SERVICE: for Safety, for Work, for Fun - FOR LIFE